This is the latest recevied weather packets stored in our database for station/object W1RCP. If no packets are shown the sender has not sent any weather packets the latest 10 day(s).
| Time | Temp. | Humidity | Pressure | Rain* | Wind** | Luminosity | Snow |
|---|---|---|---|---|---|---|---|
| 1778190723 | 25° C | 80% | 1023.2 hPa | 0 mm | - | 181 W/m² | - |
| 1778190421 | 25° C | 81% | 1023.3 hPa | 0 mm | - | 241 W/m² | - |
| 1778190117 | 25° C | 80% | 1023.4 hPa | 0 mm | - | 197 W/m² | - |
| 1778189812 | 24.44° C | 81% | 1023.3 hPa | 0 mm | - | 242 W/m² | - |
| 1778189510 | 24.44° C | 82% | 1023.5 hPa | 0 mm | - | 185 W/m² | - |
| 1778189206 | 24.44° C | 82% | 1023.6 hPa | 0 mm | - | 109 W/m² | - |
| 1778188903 | 24.44° C | 82% | 1023.4 hPa | 0 mm | - | 104 W/m² | - |
| 1778188600 | 24.44° C | 81% | 1023.4 hPa | 0 mm | - | 129 W/m² | - |
| 1778188295 | 25° C | 80% | 1023.6 hPa | 0 mm | - | 93 W/m² | - |
| 1778187993 | 25° C | 80% | 1023.5 hPa | 0 mm | - | 165 W/m² | - |
| 1778187690 | 24.44° C | 80% | 1023.5 hPa | 0 mm | - | 292 W/m² | - |
| 1778187386 | 24.44° C | 81% | 1023.4 hPa | 0 mm | - | 331 W/m² | - |
| 1778187083 | 24.44° C | 81% | 1023.5 hPa | 0 mm | - | 177 W/m² | - |
| 1778186779 | 24.44° C | 82% | 1023.4 hPa | 0 mm | - | 173 W/m² | - |
| 1778186477 | 24.44° C | 81% | 1023.5 hPa | 0 mm | - | 119 W/m² | - |
| 1778186175 | 24.44° C | 80% | 1023.7 hPa | 0 mm | - | 74 W/m² | - |
| 1778185872 | 25° C | 79% | 1023.4 hPa | 0 mm | - | 226 W/m² | - |
| 1778185567 | 25° C | 80% | 1023.3 hPa | 0 mm | - | 395 W/m² | - |
| 1778185264 | 25.56° C | 78% | 1023.6 hPa | 0 mm | - | 245 W/m² | - |
| 1778184959 | 25° C | 81% | 1023.6 hPa | 0 mm | - | 899 W/m² | - |
| 1778184656 | 24.44° C | 81% | 1023.6 hPa | 0 mm | - | 628 W/m² | - |
| 1778184351 | 23.89° C | 82% | 1023.6 hPa | 0 mm | - | 341 W/m² | - |
| 1778184048 | 23.89° C | 82% | 1023.4 hPa | 0 mm | - | 257 W/m² | - |
| 1778183745 | 23.89° C | 82% | 1023.7 hPa | 0 mm | - | 263 W/m² | - |
| 1778183443 | 23.89° C | 83% | 1023.8 hPa | 0 mm | - | 267 W/m² | - |
* Rain latest hour (hover to see other rain measurements)
** Current wind speed in m/s (hover to see current wind gust speed)